Home   Weather   Dubai   Past weeks

Flag for United Arab Emirates Past Weather in Dubai, Dubai, United Arab Emirates — Yesterday and Last 2 Weeks

Now
95 °F

Passing clouds.


Feels Like: 101 °F
Forecast: 87 / 94 °F
Wind: 14 mph from West

Location: Dubai International Airport

Current Time: Sep 30, 2016 at 3:51:48 PM

Latest Report: Sep 30, 2016 at 3:00 PM


Visibility: N/A

Pressure: 29.65 "Hg

Humidity: 44%

Dew Point: 70 °F

Location of DubaiLocation

Past Weather in Dubai — Graph

°F

Dubai Temperature Yesterday

Maximum temperature yesterday: 99 °F (at 12:00 PM)
Minimum temperature yesterday: 84 °F (at 5:00 AM)
Average temperature yesterday: 92 °F

High & Low Weather Summary for the Past Weeks

 TemperatureHumidityPressure
High104 °F (Sep 19, 1:00 PM)84% (Sep 18, 5:00 AM)29.83 "Hg (Sep 18, 5:00 AM)
Low84 °F (Sep 25, 6:00 AM)18% (Sep 19, 12:00 PM)29.59 "Hg (Sep 17, 6:00 PM)
Average92 °F59%29.68 "Hg
* Reported Sep 15 3:00 PM — Sep 30 3:00 PM, Dubai, Weather by CustomWeather, © 2016

Note: Actual official high and low records may vary slightly from our data, if they occured in-between our weather recording intervals... More about our weather records

Advertising

Dubai Weather History for the Previous 24 Hours

Scroll right to see more
 ConditionsComfort  
Time TempWeatherWind HumidityBarometerVisibility
3:00 PM
Fri, Sep 30
95 °FPassing clouds.14 mph44%29.65 "HgN/A
2:00 PM95 °FPassing clouds.17 mph41%29.65 "HgN/A
1:00 PM95 °FPassing clouds.14 mph41%29.68 "HgN/A
12:00 PM95 °FPassing clouds.14 mph44%29.68 "HgN/A
11:00 AM95 °FPassing clouds.13 mph41%29.71 "HgN/A
10:00 AM93 °FPassing clouds.10 mph44%29.71 "HgN/A
9:00 AM91 °FPassing clouds.8 mph44%29.71 "HgN/A
8:00 AM88 °FPassing clouds.8 mph49%29.68 "HgN/A
7:00 AM86 °FSunny.8 mph52%29.68 "Hg10 mi
6:00 AM86 °FClear.6 mph52%29.68 "Hg10 mi
5:00 AM88 °FPassing clouds.6 mph52%29.65 "HgN/A
4:00 AM90 °FClear.6 mph52%29.65 "Hg10 mi
3:00 AM91 °FClear.6 mph49%29.65 "Hg10 mi
2:00 AM91 °FPassing clouds.7 mph49%29.65 "HgN/A
1:00 AM91 °FPassing clouds.12 mph49%29.68 "HgN/A
12:00 AM93 °FClear.12 mph47%29.68 "Hg10 mi
11:00 PM
Thu, Sep 29
95 °FClear.13 mph39%29.68 "Hg10 mi
10:00 PM95 °FClear.10 mph41%29.68 "Hg10 mi
9:00 PM95 °FPassing clouds.12 mph47%29.68 "HgN/A
8:00 PM95 °FPassing clouds.7 mph50%29.65 "HgN/A
7:00 PM95 °FPassing clouds.7 mph53%29.65 "HgN/A
6:00 PM95 °FPassing clouds.10 mph56%29.62 "HgN/A
5:00 PM97 °FPassing clouds.9 mph50%29.62 "HgN/A
4:00 PM99 °FPassing clouds.12 mph47%29.62 "HgN/A
3:00 PM97 °FPassing clouds.13 mph53%29.62 "HgN/A
Weather by CustomWeather, © 2016

See weather overviewHow to use our weather pages